TERRA

Last updated on Mon Nov 03 2025 00:02:16 GMT+0000 (Coordinated Universal Time)

1 25994U 99068A 25306.46067524 .00000634 00000+0 13870-3 0 9995 2 25994 97.9808 359.6100 0001643 190.8936 227.1109 14.60880453376508
UTC large
Height (km)
Speed (km/s)
/
Latitude / Longitude
Inclination (degrees)
Orbital Period (minutes)
Azimuth
Elevation
Range (km)
Doppler Factor

Next 0 passes for location: London (51.5072 / 0.1276)

Sorry there are no passes over London.